SCP
-0 -0 -0 -0 -0 -0 -0 0 -0 -0 0 0 0 0 0 0 0 0 -0 0 0 0 0 0 0 0 0 0 0 0 0 0 0 0 0 0 0 0 0 0 0 1 1
-0 -0 -0 -0 -0 -0 -0 -0 0 -0 -0 -0 0 0 -0 -0 -0 -0 -0 -0 0 0 0 0 0 0 0 0 1 0 0 1 0 0 0 0 0 0 0 0 0 0 1
-0 -0 -0 -0 -0 -0 -0 -0 -0 0 0 0 -0 -0 -0 0 0 0 0 0 0 0 0 0 0 0 0 0 0 0 0 0 0 0 0 0 0 0 0 0 1 1 1
-0 -0 -0 -0 -0 -0 -0 -0 -0 -0 0 0 0 0 0 0 -0 0 0 0 0 0 0 0 0 0 0 0 0 0 1 1 1 1 0 0 0 0 0 0 1 1 1
-0 -0 -0 -0 -0 -0 -0 -0 -0 0 0 0 0 0 0 0 0 -0 -0 0 0 0 0 0 0 0 0 0 0 1 1 1 1 1 0 0 0 0 0 0 1 1 1
-0 -0 -0 -0 -0 -0 0 -0 0 0 0 0 0 0 0 0 0 0 -0 0 0 0 0 0 0 0 0 0 0 0 0 1 1 1 0 0 0 1 1 1 1 1 1
0 0 0 0 0 -0 -0 0 0 0 0 0 0 0 0 0 0 -0 -0 -0 0 0 0 0 0 1 0 0 0 0 0 0 0 0 0 0 0 1 1 1 1 1 1
0 0 0 0 0 0 0 0 0 0 0 0 -0 -0 -0 -0 0 0 0 0 0 0 0 0 0 0 0 0 0 0 0 0 0 0 0 0 0 0 0 0 0 0 1
1 1 0 0 0 0 0 0 0 0 0 0 -0 -0 0 -0 0 0 0 0 1 0 0 0 0 0 0 0 0 0 0 0 0 0 0 0 0 0 0 0 0 0 0
1 1 1 0 0 0 0 0 0 0 0 0 0 0 0 0 0 0 0 1 0 0 0 0 0 0 0 0 0 0 0 -0 0 0 0 0 0 0 0 0 0 0 0
3 2 1 1 0 0 0 0 1 1 1 1 1 1 1 1 1 0 0 0 0 0 0 0 0 0 0 0 0 0 -0 0 0 0 0 0 0 0 0 0 0 0 0
2 2 1 1 1 1 1 1 1 1 1 1 1 2 1 1 0 0 0 0 0 0 0 0 0 0 0 0 0 0 0 0 0 0 0 0 0 0 0 0 0 0 0
0 1 1 0 1 1 2 2 2 2 2 2 2 2 0 0 0 0 0 0 0 0 0 0 0 0 0 0 0 0 0 0 0 0 0 0 0 0 0 0 0 0 0
3 1 0 0 1 1 1 1 2 3 3 1 1 0 0 0 0 0 0 0 0 0 0 0 0 0 0 0 0 0 0 0 0 0 0 0 0 0 0 0 0 0 0
1 1 1 0 0 0 0 0 1 1 0 0 0 0 -0 0 0 0 0 0 0 0 0 0 0 0 0 0 0 0 0 0 0 0 0 0 0 0 0 0 0 0 0
1 1 0 0 0 0 0 0 0 0 0 0 0 0 0 0 0 0 0 0 0 0 0 0 0 0 0 0 0 0 0 0 0 0 0 0 0 0 0 0 0 0 0
1 1 1 0 0 0 0 0 0 0 0 0 0 0 0 0 0 0 0 0 0 0 0 -0 -0 -0 -0 -0 0 0 0 0 0 0 0 0 -0 0 0 0 0 0 0
1 0 0 0 0 0 0 0 0 0 0 0 0 0 0 0 0 0 0 0 0 0 -0 -0 -0 -0 -0 0 0 0 0 0 0 0 0 0 0 0 0 0 0 0 0
0 0 0 0 0 0 0 0 0 0 0 0 0 0 0 0 0 0 0 0 0 0 0 0 0 0 0 0 0 0 0 0 0 0 0 0 0 0 0 0 0 0 0
0 0 0 0 0 0 0 0 0 0 0 0 0 0 0 0 0 0 0 0 0 0 0 0 0 0 0 0 0 0 0 0 0 0 0 0 0 0 0 0 0 0 0
0 1 0 1 0 0 0 0 0 0 0 0 0 0 0 0 0 0 0 0 0 0 0 0 0 0 0 0 0 0 0 0 0 0 0 0 0 0 0 0 0 0 0
0 1 1 0 0 0 0 0 0 0 0 0 0 0 0 0 0 0 0 0 0 0 0 0 0 0 0 0 0 0 0 0 0 0 0 0 0 0 0 0 0 0 0
1 1 0 1 1 0 0 0 0 0 0 0 0 0 0 0 0 0 0 0 0 0 0 0 0 0 0 0 0 0 0 0 0 0 0 0 0 0 0 0 0 0 0
1 1 1 0 0 0 0 0 0 0 0 0 0 0 0 0 0 0 0 0 0 0 0 0 0 0 0 0 0 0 0 0 0 0 0 0 0 0 0 0 0 0 0
1 1 1 0 0 0 0 0 0 0 0 0 0 0 0 0 0 0 0 0 0 0 0 0 0 0 0 0 0 0 0 0 0 0 0 0 0 0 0 0 0 0 0
0 0 0 0 0 0 0 0 0 0 0 0 0 0 0 0 0 0 0 0 0 0 0 0 0 0 0 0 0 0 0 0 0 0 0 0 0 0 0 0 0 0 0
Wind_Speed_500mb
61 56 53 49 44 47 49 51 54 54 56 51 47 44 41 37 35 35 35 31 30 29 28 25 26 24 25 27 29 30 30 28 28 31 30 33 32 28 25 29 30 31 31
62 58 56 52 48 44 47 49 52 57 56 54 50 49 46 45 41 39 36 33 31 27 28 30 32 30 34 35 35 36 36 34 32 36 35 36 38 36 36 33 29 30 32
65 59 54 55 52 47 45 46 49 54 58 57 54 51 49 49 45 39 36 33 32 33 32 37 38 36 40 39 41 43 38 40 44 41 42 36 36 39 41 38 35 29 30
67 66 58 52 52 48 41 42 43 48 54 58 58 54 51 51 49 44 43 44 43 42 43 44 47 47 46 44 43 44 44 42 42 48 43 38 36 35 38 36 33 31 30
59 69 62 49 47 48 45 40 40 43 49 54 57 56 54 55 54 53 51 48 48 49 52 52 49 48 48 49 51 48 44 45 46 51 55 44 39 37 39 33 32 32 36
51 60 69 64 54 49 46 41 43 44 47 52 59 59 58 60 61 54 51 54 54 56 57 58 54 49 48 51 54 57 55 52 52 53 50 46 54 48 43 40 40 41 40
42 49 62 67 62 53 48 44 43 45 46 52 54 57 60 60 59 57 56 57 60 59 54 51 53 53 50 57 62 63 58 53 53 52 56 60 62 61 62 54 55 58 50
37 43 51 60 60 56 52 48 44 43 49 50 52 55 56 56 54 53 51 50 52 52 54 52 52 53 61 60 60 62 58 51 56 56 59 66 66 67 69 69 71 63 62
36 38 43 51 56 54 53 50 47 46 46 49 52 52 52 50 45 44 42 49 55 53 53 50 59 51 47 40 43 47 46 46 50 55 63 65 70 72 74 72 59 47 50
29 32 34 40 51 57 53 51 46 45 45 44 48 49 48 47 45 44 46 49 49 50 46 46 47 43 40 39 46 47 45 44 53 55 52 55 59 57 54 55 50 42 42
26 23 28 30 34 43 50 53 51 48 46 45 46 46 46 44 46 44 43 45 46 48 49 49 52 51 52 53 52 52 48 54 56 53 47 45 45 44 39 40 42 42 40
14 23 30 28 25 27 33 41 46 48 49 49 49 49 48 48 49 41 42 44 45 46 48 50 50 53 50 49 46 42 43 46 40 38 39 37 34 29 32 38 46 46 45
23 12 56 36 25 30 33 35 38 41 46 51 51 52 53 54 46 41 42 40 35 34 38 42 43 39 37 35 34 36 38 31 30 34 35 29 32 35 36 33 35 40 41
11 32 46 27 19 31 39 42 45 45 45 40 38 43 58 49 38 39 37 32 29 29 32 31 31 28 22 23 24 22 21 22 22 21 25 27 25 25 25 23 22 19 25
13 37 35 25 20 24 29 34 40 45 45 49 58 83 72 55 46 33 25 23 18 14 11 13 17 20 21 16 15 15 19 18 17 18 18 19 19 25 20 13 7 17 21
26 28 27 26 24 34 39 38 33 30 42 61 60 52 67 59 39 33 27 27 21 8 7 12 15 14 14 13 11 15 14 12 13 16 13 16 19 14 11 8 5 13 12
22 26 29 31 26 30 33 31 33 29 43 44 45 52 47 30 50 34 36 33 21 14 9 11 12 13 11 8 10 11 11 10 12 10 9 7 10 7 13 9 2 8 13
37 37 35 32 28 30 30 37 42 45 47 59 49 41 38 45 41 41 42 30 20 17 9 8 11 11 10 11 7 8 12 11 8 6 4 3 4 8 7 4 5 8 2
45 46 44 40 33 36 32 34 42 38 43 44 50 57 57 50 47 48 41 29 25 19 13 12 12 11 9 9 5 9 10 9 9 8 10 10 9 3 2 3 3 7 8
49 48 48 47 41 39 39 32 47 56 53 48 51 57 56 53 57 54 44 35 29 20 16 16 14 8 7 7 8 9 10 10 6 8 9 8 8 8 6 7 9 11 13
56 56 55 51 47 42 47 44 50 50 55 56 59 60 54 54 56 51 44 43 31 24 20 15 16 9 8 9 10 10 11 11 8 7 8 9 9 10 10 12 12 14 16
62 62 56 49 51 48 50 48 46 51 51 52 59 62 54 56 52 48 44 40 33 28 22 19 15 12 10 10 9 9 9 10 12 11 9 8 6 8 10 10 11 14 15
48 50 47 47 50 45 48 43 46 53 62 57 52 60 63 65 59 48 45 44 39 30 24 23 21 17 16 12 10 8 9 10 13 17 18 19 19 17 17 16 18 19 19
36 37 44 47 44 44 48 46 43 45 59 49 52 51 54 60 57 54 52 47 42 34 29 27 27 25 20 16 12 13 18 22 24 24 23 20 18 18 17 17 17 19 20
45 46 49 48 46 44 48 46 46 45 56 48 61 60 53 54 55 52 56 50 43 37 34 34 35 31 25 20 20 19 27 26 24 22 20 18 16 16 16 15 16 16 17
39 44 44 46 44 39 45 47 45 44 48 51 51 50 54 55 51 49 51 49 41 37 34 32 31 32 27 24 25 25 33 30 26 23 20 18 19 19 18 17 18 17 19
Wind_Direction_500mb
222 223 226 227 229 230 228 227 225 224 226 230 230 230 235 237 237 240 247 256 263 256 256 269 277 281 281 284 282 283 285 281 271 284 287 296 297 292 289 289 277 268 267
224 226 227 229 230 232 232 231 228 227 227 228 229 232 234 236 235 243 250 257 253 252 260 270 278 279 278 279 278 281 286 285 276 278 283 285 292 289 291 291 279 272 267
221 226 228 228 229 233 234 231 230 228 228 227 224 226 234 231 234 240 240 239 245 256 263 268 276 275 275 275 275 277 277 279 281 278 281 280 283 289 290 287 275 275 275
220 220 226 229 229 230 234 233 232 228 226 223 223 228 229 226 230 235 239 243 252 259 264 266 271 273 273 273 272 276 278 277 275 276 277 280 279 282 283 281 275 274 273
220 217 217 222 227 229 232 231 231 228 225 223 224 228 230 230 235 239 244 251 258 261 267 273 277 278 278 273 273 273 272 274 276 278 281 279 276 278 280 281 267 271 274
222 218 218 223 227 227 228 231 228 226 223 222 225 228 232 236 238 243 249 257 262 269 273 274 275 277 275 273 271 271 271 271 274 276 279 274 280 281 278 275 273 271 274
224 224 222 222 225 226 225 228 229 227 226 227 228 231 234 238 242 248 253 259 266 268 271 270 269 272 280 283 277 270 265 264 263 269 275 274 278 277 277 278 275 275 271
230 228 228 226 225 226 225 229 231 229 229 229 230 233 237 240 244 247 252 255 257 260 265 265 264 272 285 287 282 268 259 260 267 270 272 276 276 276 274 270 269 269 271
238 229 228 227 224 225 225 228 233 235 233 231 232 233 236 240 242 245 246 250 255 260 261 260 271 278 282 284 277 282 266 275 282 275 273 276 278 277 275 274 271 268 269
264 255 248 241 235 232 231 230 232 238 241 241 239 238 239 242 244 245 247 252 264 261 263 273 276 273 274 274 275 283 286 290 289 285 285 284 283 283 279 271 266 258 259
303 293 277 262 250 248 244 239 236 238 241 243 244 243 244 245 250 250 254 259 263 268 275 276 272 269 274 280 282 285 289 288 289 291 292 292 292 291 286 279 271 253 250
16 338 301 275 259 254 249 245 241 241 243 243 244 247 250 252 252 255 263 267 270 268 275 274 276 280 278 279 282 281 283 292 295 298 303 303 305 293 292 289 268 258 250
274 1 300 298 280 250 245 242 239 239 242 249 251 253 250 258 262 262 265 262 259 272 278 276 274 276 279 281 281 280 286 293 299 304 308 303 305 296 292 286 272 261 255
173 275 270 276 280 281 262 243 239 237 235 237 251 277 279 261 264 265 264 259 263 265 273 277 277 269 272 280 291 298 302 300 301 301 310 314 315 310 305 289 277 274 252
258 240 264 273 285 282 284 271 251 241 238 236 271 264 275 311 289 268 251 249 244 241 251 279 282 277 269 273 295 299 309 309 302 302 315 323 329 318 308 301 273 247 242
265 268 272 277 261 263 268 269 266 253 248 254 241 230 243 274 262 247 228 207 204 242 295 299 302 292 270 271 276 291 305 311 305 291 300 310 328 338 339 337 267 243 254
271 266 271 276 276 270 260 237 229 231 236 231 247 242 221 219 229 220 215 214 228 261 279 289 297 294 289 287 276 286 293 312 315 293 291 331 360 11 15 27 301 254 251
286 283 278 282 281 269 253 226 237 248 230 208 206 205 215 199 198 205 210 217 237 250 257 276 307 318 322 310 293 286 294 298 301 251 251 277 311 317 342 0 14 48 330
280 284 281 274 272 263 266 237 227 219 205 200 199 194 191 189 184 199 205 222 230 229 239 268 293 314 314 331 294 294 286 271 262 250 248 273 299 322 255 176 122 109 132
272 274 271 269 266 263 256 245 221 210 209 215 211 203 199 193 190 199 208 216 215 217 234 245 259 304 329 306 295 311 309 296 264 248 247 250 243 234 223 214 199 190 180
265 271 264 261 257 256 249 244 229 219 207 209 208 211 211 201 200 203 215 211 207 206 221 232 249 273 337 327 297 283 271 268 267 254 253 250 251 235 218 202 201 197 200
256 261 252 243 249 251 245 237 235 229 218 209 203 209 211 210 211 213 219 213 208 209 217 233 250 260 274 314 292 271 257 242 239 229 222 225 195 155 146 149 159 176 177
252 245 243 242 250 249 242 243 235 230 222 215 206 212 211 210 214 220 221 215 210 210 221 236 249 260 259 271 297 263 205 175 158 147 140 135 131 133 135 137 136 135 138
238 247 238 239 245 244 239 242 245 234 221 212 207 210 213 218 221 224 217 215 213 215 227 239 246 249 258 253 267 222 185 163 150 143 140 138 140 141 145 145 145 146 143
236 241 240 242 244 244 238 238 244 240 221 207 214 217 219 223 227 224 213 215 218 227 239 250 245 241 243 247 240 223 197 184 173 165 159 159 161 157 158 159 160 162 165
240 237 238 242 247 249 237 237 225 226 210 213 217 224 229 226 223 216 214 213 219 233 244 246 240 227 228 242 235 230 211 207 204 205 210 212 211 210 207 202 204 200 204
Wind_Speed_850mb
61 56 53 49 44 47 49 51 54 54 56 51 47 44 41 37 35 35 35 31 30 29 28 25 26 24 25 27 29 30 30 28 28 31 30 33 32 28 25 29 30 31 31
62 58 56 52 48 44 47 49 52 57 56 54 50 49 46 45 41 39 36 33 31 27 28 30 32 30 34 35 35 36 36 34 32 36 35 36 38 36 36 33 29 30 32
65 59 54 55 52 47 45 46 49 54 58 57 54 51 49 49 45 39 36 33 32 33 32 37 38 36 40 39 41 43 38 40 44 41 42 36 36 39 41 38 35 29 30
67 66 58 52 52 48 41 42 43 48 54 58 58 54 51 51 49 44 43 44 43 42 43 44 47 47 46 44 43 44 44 42 42 48 43 38 36 35 38 36 33 31 30
59 69 62 49 47 48 45 40 40 43 49 54 57 56 54 55 54 53 51 48 48 49 52 52 49 48 48 49 51 48 44 45 46 51 55 44 39 37 39 33 32 32 36
51 60 69 64 54 49 46 41 43 44 47 52 59 59 58 60 61 54 51 54 54 56 57 58 54 49 48 51 54 57 55 52 52 53 50 46 54 48 43 40 40 41 40
42 49 62 67 62 53 48 44 43 45 46 52 54 57 60 60 59 57 56 57 60 59 54 51 53 53 50 57 62 63 58 53 53 52 56 60 62 61 62 54 55 58 50
37 43 51 60 60 56 52 48 44 43 49 50 52 55 56 56 54 53 51 50 52 52 54 52 52 53 61 60 60 62 58 51 56 56 59 66 66 67 69 69 71 63 62
36 38 43 51 56 54 53 50 47 46 46 49 52 52 52 50 45 44 42 49 55 53 53 50 59 51 47 40 43 47 46 46 50 55 63 65 70 72 74 72 59 47 50
29 32 34 40 51 57 53 51 46 45 45 44 48 49 48 47 45 44 46 49 49 50 46 46 47 43 40 39 46 47 45 44 53 55 52 55 59 57 54 55 50 42 42
26 23 28 30 34 43 50 53 51 48 46 45 46 46 46 44 46 44 43 45 46 48 49 49 52 51 52 53 52 52 48 54 56 53 47 45 45 44 39 40 42 42 40
14 23 30 28 25 27 33 41 46 48 49 49 49 49 48 48 49 41 42 44 45 46 48 50 50 53 50 49 46 42 43 46 40 38 39 37 34 29 32 38 46 46 45
23 12 56 36 25 30 33 35 38 41 46 51 51 52 53 54 46 41 42 40 35 34 38 42 43 39 37 35 34 36 38 31 30 34 35 29 32 35 36 33 35 40 41
11 32 46 27 19 31 39 42 45 45 45 40 38 43 58 49 38 39 37 32 29 29 32 31 31 28 22 23 24 22 21 22 22 21 25 27 25 25 25 23 22 19 25
13 37 35 25 20 24 29 34 40 45 45 49 58 83 72 55 46 33 25 23 18 14 11 13 17 20 21 16 15 15 19 18 17 18 18 19 19 25 20 13 7 17 21
26 28 27 26 24 34 39 38 33 30 42 61 60 52 67 59 39 33 27 27 21 8 7 12 15 14 14 13 11 15 14 12 13 16 13 16 19 14 11 8 5 13 12
22 26 29 31 26 30 33 31 33 29 43 44 45 52 47 30 50 34 36 33 21 14 9 11 12 13 11 8 10 11 11 10 12 10 9 7 10 7 13 9 2 8 13
37 37 35 32 28 30 30 37 42 45 47 59 49 41 38 45 41 41 42 30 20 17 9 8 11 11 10 11 7 8 12 11 8 6 4 3 4 8 7 4 5 8 2
45 46 44 40 33 36 32 34 42 38 43 44 50 57 57 50 47 48 41 29 25 19 13 12 12 11 9 9 5 9 10 9 9 8 10 10 9 3 2 3 3 7 8
49 48 48 47 41 39 39 32 47 56 53 48 51 57 56 53 57 54 44 35 29 20 16 16 14 8 7 7 8 9 10 10 6 8 9 8 8 8 6 7 9 11 13
56 56 55 51 47 42 47 44 50 50 55 56 59 60 54 54 56 51 44 43 31 24 20 15 16 9 8 9 10 10 11 11 8 7 8 9 9 10 10 12 12 14 16
62 62 56 49 51 48 50 48 46 51 51 52 59 62 54 56 52 48 44 40 33 28 22 19 15 12 10 10 9 9 9 10 12 11 9 8 6 8 10 10 11 14 15
48 50 47 47 50 45 48 43 46 53 62 57 52 60 63 65 59 48 45 44 39 30 24 23 21 17 16 12 10 8 9 10 13 17 18 19 19 17 17 16 18 19 19
36 37 44 47 44 44 48 46 43 45 59 49 52 51 54 60 57 54 52 47 42 34 29 27 27 25 20 16 12 13 18 22 24 24 23 20 18 18 17 17 17 19 20
45 46 49 48 46 44 48 46 46 45 56 48 61 60 53 54 55 52 56 50 43 37 34 34 35 31 25 20 20 19 27 26 24 22 20 18 16 16 16 15 16 16 17
39 44 44 46 44 39 45 47 45 44 48 51 51 50 54 55 51 49 51 49 41 37 34 32 31 32 27 24 25 25 33 30 26 23 20 18 19 19 18 17 18 17 19
Wind_Direction_850mb
222 223 226 227 229 230 228 227 225 224 226 230 230 230 235 237 237 240 247 256 263 256 256 269 277 281 281 284 282 283 285 281 271 284 287 296 297 292 289 289 277 268 267
224 226 227 229 230 232 232 231 228 227 227 228 229 232 234 236 235 243 250 257 253 252 260 270 278 279 278 279 278 281 286 285 276 278 283 285 292 289 291 291 279 272 267
221 226 228 228 229 233 234 231 230 228 228 227 224 226 234 231 234 240 240 239 245 256 263 268 276 275 275 275 275 277 277 279 281 278 281 280 283 289 290 287 275 275 275
220 220 226 229 229 230 234 233 232 228 226 223 223 228 229 226 230 235 239 243 252 259 264 266 271 273 273 273 272 276 278 277 275 276 277 280 279 282 283 281 275 274 273
220 217 217 222 227 229 232 231 231 228 225 223 224 228 230 230 235 239 244 251 258 261 267 273 277 278 278 273 273 273 272 274 276 278 281 279 276 278 280 281 267 271 274
222 218 218 223 227 227 228 231 228 226 223 222 225 228 232 236 238 243 249 257 262 269 273 274 275 277 275 273 271 271 271 271 274 276 279 274 280 281 278 275 273 271 274
224 224 222 222 225 226 225 228 229 227 226 227 228 231 234 238 242 248 253 259 266 268 271 270 269 272 280 283 277 270 265 264 263 269 275 274 278 277 277 278 275 275 271
230 228 228 226 225 226 225 229 231 229 229 229 230 233 237 240 244 247 252 255 257 260 265 265 264 272 285 287 282 268 259 260 267 270 272 276 276 276 274 270 269 269 271
238 229 228 227 224 225 225 228 233 235 233 231 232 233 236 240 242 245 246 250 255 260 261 260 271 278 282 284 277 282 266 275 282 275 273 276 278 277 275 274 271 268 269
264 255 248 241 235 232 231 230 232 238 241 241 239 238 239 242 244 245 247 252 264 261 263 273 276 273 274 274 275 283 286 290 289 285 285 284 283 283 279 271 266 258 259
303 293 277 262 250 248 244 239 236 238 241 243 244 243 244 245 250 250 254 259 263 268 275 276 272 269 274 280 282 285 289 288 289 291 292 292 292 291 286 279 271 253 250
16 338 301 275 259 254 249 245 241 241 243 243 244 247 250 252 252 255 263 267 270 268 275 274 276 280 278 279 282 281 283 292 295 298 303 303 305 293 292 289 268 258 250
274 1 300 298 280 250 245 242 239 239 242 249 251 253 250 258 262 262 265 262 259 272 278 276 274 276 279 281 281 280 286 293 299 304 308 303 305 296 292 286 272 261 255
173 275 270 276 280 281 262 243 239 237 235 237 251 277 279 261 264 265 264 259 263 265 273 277 277 269 272 280 291 298 302 300 301 301 310 314 315 310 305 289 277 274 252
258 240 264 273 285 282 284 271 251 241 238 236 271 264 275 311 289 268 251 249 244 241 251 279 282 277 269 273 295 299 309 309 302 302 315 323 329 318 308 301 273 247 242
265 268 272 277 261 263 268 269 266 253 248 254 241 230 243 274 262 247 228 207 204 242 295 299 302 292 270 271 276 291 305 311 305 291 300 310 328 338 339 337 267 243 254
271 266 271 276 276 270 260 237 229 231 236 231 247 242 221 219 229 220 215 214 228 261 279 289 297 294 289 287 276 286 293 312 315 293 291 331 360 11 15 27 301 254 251
286 283 278 282 281 269 253 226 237 248 230 208 206 205 215 199 198 205 210 217 237 250 257 276 307 318 322 310 293 286 294 298 301 251 251 277 311 317 342 0 14 48 330
280 284 281 274 272 263 266 237 227 219 205 200 199 194 191 189 184 199 205 222 230 229 239 268 293 314 314 331 294 294 286 271 262 250 248 273 299 322 255 176 122 109 132
272 274 271 269 266 263 256 245 221 210 209 215 211 203 199 193 190 199 208 216 215 217 234 245 259 304 329 306 295 311 309 296 264 248 247 250 243 234 223 214 199 190 180
265 271 264 261 257 256 249 244 229 219 207 209 208 211 211 201 200 203 215 211 207 206 221 232 249 273 337 327 297 283 271 268 267 254 253 250 251 235 218 202 201 197 200
256 261 252 243 249 251 245 237 235 229 218 209 203 209 211 210 211 213 219 213 208 209 217 233 250 260 274 314 292 271 257 242 239 229 222 225 195 155 146 149 159 176 177
252 245 243 242 250 249 242 243 235 230 222 215 206 212 211 210 214 220 221 215 210 210 221 236 249 260 259 271 297 263 205 175 158 147 140 135 131 133 135 137 136 135 138
238 247 238 239 245 244 239 242 245 234 221 212 207 210 213 218 221 224 217 215 213 215 227 239 246 249 258 253 267 222 185 163 150 143 140 138 140 141 145 145 145 146 143
236 241 240 242 244 244 238 238 244 240 221 207 214 217 219 223 227 224 213 215 218 227 239 250 245 241 243 247 240 223 197 184 173 165 159 159 161 157 158 159 160 162 165
240 237 238 242 247 249 237 237 225 226 210 213 217 224 229 226 223 216 214 213 219 233 244 246 240 227 228 242 235 230 211 207 204 205 210 212 211 210 207 202 204 200 204